Volver al catálogo

COSMOS 2251 DEB

ActivoLEO
NORAD 34750·DEBRIS·🇷🇺 Russia

Lanzado Jun 16, 1993 desde Plesetsk Cosmodrome

Loading…

Próximos Pases (próximas 24 horas)

TLE

ActualizadoSource: Space-Track

Época: Sep 14, 2026, 09:38 UTC

1 34750U 93036ZU  26257.40207209  .00003467  00000-0  65975-3 0  9991
2 34750  74.1072  35.5458 0035975 271.6765 118.1377 14.64078347922628

Sigue COSMOS 2251 DEB en tiempo real con AllMySat

Download on the App Store